,,PA_Meas_PMT16A,,PR_Meas_QMR101_102,,RH_Meas_QMH101,,SR_Meas_QMS101,,TA_Meas_QMH101,,GenWind,,GenWind,
time,status,PA,status,PR,status,RH,status,SR,status,TA,status,DirAvg,status,SpdAvg,
2012-08-14, 00:00:04,VALID,918.661,VALID,0,VALID,97.3663,VALID,0,VALID,18.6903,VALID,23,VALID,0,
2012-08-14, 00:01:04,VALID,918.649,VALID,0,VALID,97.3968,VALID,0,VALID,18.7113,VALID,22,VALID,0,
2012-08-14, 00:02:04,VALID,918.63,VALID,0,VALID,97.3891,VALID,0,VALID,18.6918,VALID,22,VALID,0,
2012-08-14, 00:03:04,VALID,918.598,VALID,0,VALID,97.3968,VALID,0,VALID,18.6708,VALID,22,VALID,0,
2012-08-14, 00:04:04,VALID,918.616,VALID,0,VALID,97.3739,VALID,0,VALID,18.7098,VALID,22,VALID,0,
2012-08-14, 00:05:04,VALID,918.597,VALID,0,VALID,97.4044,VALID,0,VALID,18.7308,VALID,22,VALID,0,
2012-08-14, 00:06:04,VALID,918.624,VALID,0,VALID,97.3891,VALID,0,VALID,18.7503,VALID,22,VALID,0,
2012-08-14, 00:07:04,VALID,918.59,VALID,0,VALID,97.4044,VALID,0,VALID,18.7712,VALID,22,VALID,0,
2012-08-14, 00:08:04,VALID,918.584,VALID,0,VALID,97.4044,VALID,0,VALID,18.7503,VALID,22,VALID,0,
2012-08-14, 00:09:04,VALID,918.586,VALID,0,VALID,97.3815,VALID,0,VALID,18.7098,VALID,22,VALID,0,
2012-08-14, 00:10:04,VALID,918.565,VALID,0,VALID,97.3968,VALID,0,VALID,18.7113,VALID,22,VALID,0,
2012-08-14, 00:11:04,VALID,918.556,VALID,0,VALID,97.4044,VALID,0,VALID,18.6918,VALID,22,VALID,0,
2012-08-14, 00:12:04,VALID,918.583,VALID,0,VALID,97.3968,VALID,0,VALID,18.6918,VALID,170,VALID,0,
2012-08-14, 00:13:04,VALID,918.552,VALID,0,VALID,97.4196,VALID,0,VALID,18.6723,VALID,170,VALID,0,
2012-08-14, 00:14:04,VALID,918.564,VALID,0,VALID,97.3968,VALID,0,VALID,18.6528,VALID,170,VALID,0,
2012-08-14, 00:15:04,VALID,918.548,VALID,0,VALID,97.4044,VALID,0,VALID,18.6723,VALID,170,VALID,0,
2012-08-14, 00:16:04,VALID,918.537,VALID,0,VALID,97.4044,VALID,0,VALID,18.6723,VALID,170,VALID,0,
2012-08-14, 00:17:04,VALID,918.499,VALID,0,VALID,97.412,VALID,0,VALID,18.6723,VALID,170,VALID,0,
2012-08-14, 00:18:04,VALID,918.485,VALID,0,VALID,97.4196,VALID,0,VALID,18.6918,VALID,170,VALID,0,
2012-08-14, 00:19:04,VALID,918.491,VALID,0,VALID,97.4044,VALID,0,VALID,18.6723,VALID,170,VALID,0,
2012-08-14, 00:20:04,VALID,918.477,VALID,0,VALID,97.4349,VALID,0,VALID,18.6918,VALID,170,VALID,0,
2012-08-14, 00:21:04,VALID,918.469,VALID,0,VALID,97.4501,VALID,0,VALID,18.6918,VALID,170,VALID,0,
2012-08-14, 00:22:04,VALID,918.436,VALID,0,VALID,97.4501,VALID,0,VALID,18.6918,VALID,170,VALID,0,
2012-08-14, 00:23:04,VALID,918.439,VALID,0,VALID,97.4425,VALID,0,VALID,18.6528,VALID,170,VALID,0,
2012-08-14, 00:24:04,VALID,918.435,VALID,0,VALID,97.4349,VALID,0,VALID,18.6333,VALID,170,VALID,0,
2012-08-14, 00:25:04,VALID,918.433,VALID,0,VALID,97.4273,VALID,0,VALID,18.6138,VALID,170,VALID,0,
2012-08-14, 00:26:04,VALID,918.452,VALID,0,VALID,97.4196,VALID,0,VALID,18.5943,VALID,170,VALID,0,
2012-08-14, 00:27:04,VALID,918.429,VALID,0,VALID,97.4273,VALID,0,VALID,18.5734,VALID,170,VALID,0,
2012-08-14, 00:28:04,VALID,918.441,VALID,0,VALID,97.4273,VALID,0,VALID,18.5943,VALID,135,VALID,0,
2012-08-14, 00:29:04,VALID,918.463,VALID,0,VALID,97.4349,VALID,0,VALID,18.5943,VALID,98,VALID,0,
2012-08-14, 00:30:04,VALID,918.453,VALID,0,VALID,97.4501,VALID,0,VALID,18.5748,VALID,98,VALID,0,
2012-08-14, 00:31:04,VALID,918.461,VALID,0,VALID,97.4654,VALID,0,VALID,18.5748,VALID,98,VALID,0,
2012-08-14, 00:32:04,VALID,918.49,VALID,0,VALID,97.4577,VALID,0,VALID,18.5553,VALID,98,VALID,0,
2012-08-14, 00:33:04,VALID,918.479,VALID,0,VALID,97.4654,VALID,0,VALID,18.5553,VALID,98,VALID,0,
2012-08-14, 00:34:04,VALID,918.49,VALID,0,VALID,97.4654,VALID,0,VALID,18.5358,VALID,98,VALID,0,
2012-08-14, 00:35:04,VALID,918.467,VALID,0,VALID,97.4882,VALID,0,VALID,18.5748,VALID,98,VALID,0,
2012-08-14, 00:36:04,VALID,918.45,VALID,0,VALID,97.473,VALID,0,VALID,18.5748,VALID,98,VALID,0,
2012-08-14, 00:37:04,VALID,918.426,VALID,0,VALID,97.4959,VALID,0,VALID,18.6138,VALID,97,VALID,0,
2012-08-14, 00:38:04,VALID,918.392,VALID,0,VALID,97.4882,VALID,0,VALID,18.6333,VALID,97,VALID,0,
2012-08-14, 00:39:04,VALID,918.342,VALID,0,VALID,97.5111,VALID,0,VALID,18.6333,VALID,97,VALID,0,
2012-08-14, 00:40:04,VALID,918.33,VALID,0,VALID,97.5035,VALID,0,VALID,18.6723,VALID,98,VALID,0,
2012-08-14, 00:41:04,VALID,918.305,VALID,0,VALID,97.5187,VALID,0,VALID,18.6723,VALID,98,VALID,0,
2012-08-14, 00:42:04,VALID,918.283,VALID,0,VALID,97.5187,VALID,0,VALID,18.6723,VALID,98,VALID,0,
2012-08-14, 00:43:04,VALID,918.271,VALID,0,VALID,97.5187,VALID,0,VALID,18.6723,VALID,98,VALID,0,
2012-08-14, 00:44:04,VALID,918.262,VALID,0,VALID,97.5187,VALID,0,VALID,18.6723,VALID,98,VALID,0,
2012-08-14, 00:45:04,VALID,918.232,VALID,0,VALID,97.5187,VALID,0,VALID,18.6723,VALID,97,VALID,0,
2012-08-14, 00:46:04,VALID,918.221,VALID,0,VALID,97.5111,VALID,0,VALID,18.6723,VALID,97,VALID,0,
2012-08-14, 00:47:04,VALID,918.216,VALID,0,VALID,97.5035,VALID,0,VALID,18.6528,VALID,98,VALID,0,
2012-08-14, 00:48:04,VALID,918.163,VALID,0,VALID,97.5187,VALID,0,VALID,18.6918,VALID,98,VALID,0,
2012-08-14, 00:49:04,VALID,918.116,VALID,0,VALID,97.5187,VALID,0,VALID,18.6723,VALID,98,VALID,0,
2012-08-14, 00:50:04,VALID,918.102,VALID,0,VALID,97.5111,VALID,0,VALID,18.6333,VALID,98,VALID,0,
2012-08-14, 00:51:04,VALID,918.069,VALID,0,VALID,97.5111,VALID,0,VALID,18.6333,VALID,97,VALID,0,
2012-08-14, 00:52:04,VALID,918.082,VALID,0,VALID,97.5187,VALID,0,VALID,18.6138,VALID,98,VALID,0,
2012-08-14, 00:53:04,VALID,918.036,VALID,0,VALID,97.5111,VALID,0,VALID,18.6138,VALID,97,VALID,0,
2012-08-14, 00:54:04,VALID,918.042,VALID,0,VALID,97.5264,VALID,0,VALID,18.6528,VALID,98,VALID,0,
2012-08-14, 00:55:04,VALID,918.015,VALID,0,VALID,97.534,VALID,0,VALID,18.6918,VALID,98,VALID,0,
2012-08-14, 00:56:04,VALID,917.966,VALID,0,VALID,97.5111,VALID,0,VALID,18.6918,VALID,126,VALID,0,
2012-08-14, 00:57:04,VALID,917.958,VALID,0,VALID,97.5416,VALID,0,VALID,18.6918,VALID,126,VALID,0,
2012-08-14, 00:58:04,VALID,917.933,VALID,0,VALID,97.534,VALID,0,VALID,18.6918,VALID,126,VALID,0,
2012-08-14, 00:59:04,VALID,917.906,VALID,0,VALID,97.534,VALID,0,VALID,18.6918,VALID,126,VALID,0,
2012-08-14, 01:00:04,VALID,917.912,VALID,0,VALID,97.534,VALID,0,VALID,18.6918,VALID,126,VALID,0,
2012-08-14, 01:01:04,VALID,917.872,VALID,0,VALID,97.5416,VALID,0,VALID,18.6918,VALID,126,VALID,0,
2012-08-14, 01:02:04,VALID,917.879,VALID,0,VALID,97.5111,VALID,0,VALID,18.6918,VALID,126,VALID,0,
2012-08-14, 01:03:04,VALID,917.877,VALID,0,VALID,97.534,VALID,0,VALID,18.7127,VALID,126,VALID,0,
2012-08-14, 01:04:04,VALID,917.875,VALID,0,VALID,97.5264,VALID,0,VALID,18.7113,VALID,126,VALID,0,
2012-08-14, 01:05:04,VALID,917.85,VALID,0,VALID,97.534,VALID,0,VALID,18.7503,VALID,126,VALID,0,
2012-08-14, 01:06:04,VALID,917.832,VALID,0,VALID,97.5569,VALID,0,VALID,18.7503,VALID,126,VALID,0,
2012-08-14, 01:07:04,VALID,917.825,VALID,0,VALID,97.5187,VALID,0,VALID,18.7113,VALID,126,VALID,0,
2012-08-14, 01:08:04,VALID,917.802,VALID,0,VALID,97.5264,VALID,0,VALID,18.7113,VALID,126,VALID,0,
2012-08-14, 01:09:04,VALID,917.795,VALID,0,VALID,97.5187,VALID,0,VALID,18.7113,VALID,126,VALID,0,
2012-08-14, 01:10:04,VALID,917.776,VALID,0,VALID,97.5264,VALID,0,VALID,18.6918,VALID,126,VALID,0,
2012-08-14, 01:11:04,VALID,917.761,VALID,0,VALID,97.5187,VALID,0,VALID,18.7113,VALID,126,VALID,0,
2012-08-14, 01:12:04,VALID,917.794,VALID,0,VALID,97.4959,VALID,0,VALID,18.7113,VALID,126,VALID,0,
2012-08-14, 01:13:04,VALID,917.75,VALID,0,VALID,97.4882,VALID,0,VALID,18.6918,VALID,126,VALID,0,
2012-08-14, 01:14:04,VALID,917.754,VALID,0,VALID,97.4882,VALID,0,VALID,18.6918,VALID,126,VALID,0,
2012-08-14, 01:15:04,VALID,917.768,VALID,0,VALID,97.473,VALID,0,VALID,18.6918,VALID,126,VALID,0,
2012-08-14, 01:16:04,VALID,917.744,VALID,0,VALID,97.4654,VALID,0,VALID,18.6723,VALID,125,VALID,0,
2012-08-14, 01:17:04,VALID,917.733,VALID,0,VALID,97.4806,VALID,0,VALID,18.6708,VALID,124,VALID,0,
2012-08-14, 01:18:04,VALID,917.714,VALID,0,VALID,97.4654,VALID,0,VALID,18.7113,VALID,124,VALID,0,
2012-08-14, 01:19:04,VALID,917.694,VALID,0,VALID,97.4501,VALID,0,VALID,18.7503,VALID,124,VALID,0,
2012-08-14, 01:20:04,VALID,917.698,VALID,0,VALID,97.4425,VALID,0,VALID,18.7503,VALID,116,VALID,0,
2012-08-14, 01:21:04,VALID,917.72,VALID,0,VALID,97.4425,VALID,0,VALID,18.7503,VALID,116,VALID,0,
2012-08-14, 01:22:04,VALID,917.768,VALID,0,VALID,97.4425,VALID,0,VALID,18.7308,VALID,116,VALID,0,
2012-08-14, 01:23:04,VALID,917.729,VALID,0,VALID,97.4044,VALID,0,VALID,18.7308,VALID,116,VALID,0,
2012-08-14, 01:24:04,VALID,917.723,VALID,0,VALID,97.4196,VALID,0,VALID,18.7308,VALID,116,VALID,0,
2012-08-14, 01:25:04,VALID,917.695,VALID,0,VALID,97.4044,VALID,0,VALID,18.7113,VALID,116,VALID,0,
2012-08-14, 01:26:04,VALID,917.704,VALID,0,VALID,97.412,VALID,0,VALID,18.7308,VALID,116,VALID,0,
2012-08-14, 01:27:04,VALID,917.655,VALID,0,VALID,97.3891,VALID,0,VALID,18.7308,VALID,116,VALID,0,
2012-08-14, 01:28:04,VALID,917.677,VALID,0,VALID,97.3815,VALID,0,VALID,18.7308,VALID,116,VALID,0,
2012-08-14, 01:29:04,VALID,917.638,VALID,0,VALID,97.3815,VALID,0,VALID,18.7503,VALID,133,VALID,0,
2012-08-14, 01:30:04,VALID,917.614,VALID,0,VALID,97.3891,VALID,0,VALID,18.7308,VALID,137,VALID,0,
2012-08-14, 01:31:04,VALID,917.567,VALID,0,VALID,97.3815,VALID,0,VALID,18.7113,VALID,136,VALID,0,
2012-08-14, 01:32:04,VALID,917.553,VALID,0,VALID,97.3815,VALID,0,VALID,18.7113,VALID,136,VALID,0,
2012-08-14, 01:33:04,VALID,917.523,VALID,0,VALID,97.412,VALID,0,VALID,18.7113,VALID,129,VALID,0,
2012-08-14, 01:34:04,VALID,917.54,VALID,0,VALID,97.3968,VALID,0,VALID,18.6723,VALID,110,VALID,0,
2012-08-14, 01:35:04,VALID,917.555,VALID,0,VALID,97.4044,VALID,0,VALID,18.6333,VALID,124,VALID,0,
2012-08-14, 01:36:04,VALID,917.526,VALID,0,VALID,97.4044,VALID,0,VALID,18.6528,VALID,114,VALID,0,
2012-08-14, 01:37:04,VALID,917.517,VALID,0,VALID,97.3968,VALID,0,VALID,18.6333,VALID,111,VALID,0,
2012-08-14, 01:38:04,VALID,917.529,VALID,0,VALID,97.412,VALID,0,VALID,18.6333,VALID,111,VALID,0,
2012-08-14, 01:39:04,VALID,917.498,VALID,0,VALID,97.4196,VALID,0,VALID,18.6528,VALID,112,VALID,0,
2012-08-14, 01:40:04,VALID,917.461,VALID,0,VALID,97.412,VALID,0,VALID,18.6723,VALID,136,VALID,0,
2012-08-14, 01:41:04,VALID,917.429,VALID,0,VALID,97.4044,VALID,0,VALID,18.6513,VALID,136,VALID,0,
2012-08-14, 01:42:04,VALID,917.421,VALID,0,VALID,97.4273,VALID,0,VALID,18.6723,VALID,136,VALID,0,
2012-08-14, 01:43:04,VALID,917.383,VALID,0,VALID,97.4273,VALID,0,VALID,18.6723,VALID,136,VALID,0,
2012-08-14, 01:44:04,VALID,917.357,VALID,0,VALID,97.4196,VALID,0,VALID,18.6528,VALID,136,VALID,0,
2012-08-14, 01:45:04,VALID,917.335,VALID,0,VALID,97.4273,VALID,0,VALID,18.6528,VALID,136,VALID,0,
2012-08-14, 01:46:04,VALID,917.274,VALID,0,VALID,97.4349,VALID,0,VALID,18.6333,VALID,136,VALID,0,
2012-08-14, 01:47:04,VALID,917.282,VALID,0,VALID,97.4349,VALID,0,VALID,18.5943,VALID,136,VALID,0,
2012-08-14, 01:48:04,VALID,917.264,VALID,0,VALID,97.4196,VALID,0,VALID,18.5748,VALID,136,VALID,0,
2012-08-14, 01:49:04,VALID,917.261,VALID,0,VALID,97.412,VALID,0,VALID,18.5358,VALID,136,VALID,0,
2012-08-14, 01:50:04,VALID,917.263,VALID,0,VALID,97.4044,VALID,0,VALID,18.4968,VALID,136,VALID,0,
2012-08-14, 01:51:04,VALID,917.248,VALID,0,VALID,97.412,VALID,0,VALID,18.4773,VALID,136,VALID,0,
2012-08-14, 01:52:04,VALID,917.237,VALID,0,VALID,97.412,VALID,0,VALID,18.4787,VALID,136,VALID,0,
2012-08-14, 01:53:04,VALID,917.207,VALID,0,VALID,97.3968,VALID,0,VALID,18.4383,VALID,136,VALID,0,
2012-08-14, 01:54:04,VALID,917.186,VALID,0,VALID,97.4044,VALID,0,VALID,18.4592,VALID,136,VALID,0,
2012-08-14, 01:55:04,VALID,917.155,VALID,0,VALID,97.4196,VALID,0,VALID,18.4188,VALID,136,VALID,0,
2012-08-14, 01:56:04,VALID,917.13,VALID,0,VALID,97.4196,VALID,0,VALID,18.3798,VALID,136,VALID,0,
2012-08-14, 01:57:04,VALID,917.082,VALID,0,VALID,97.4044,VALID,0,VALID,18.3408,VALID,136,VALID,0,
2012-08-14, 01:58:04,VALID,917.068,VALID,0,VALID,97.3815,VALID,0,VALID,18.3018,VALID,136,VALID,0,
2012-08-14, 01:59:04,VALID,917.055,VALID,0,VALID,97.3968,VALID,0,VALID,18.2433,VALID,136,VALID,0,
2012-08-14, 02:00:04,VALID,917.026,VALID,0,VALID,97.3815,VALID,0,VALID,18.2238,VALID,136,VALID,0,
2012-08-14, 02:01:04,VALID,917.003,VALID,0,VALID,97.3891,VALID,0,VALID,18.2044,VALID,136,VALID,0,
2012-08-14, 02:02:04,VALID,916.975,VALID,0,VALID,97.3663,VALID,0,VALID,18.1459,VALID,136,VALID,0,
2012-08-14, 02:03:04,VALID,916.993,VALID,0,VALID,97.3586,VALID,0,VALID,18.0874,VALID,136,VALID,0,
2012-08-14, 02:04:04,VALID,916.97,VALID,0,VALID,97.3815,VALID,0,VALID,18.1083,VALID,136,VALID,0,
2012-08-14, 02:05:04,VALID,916.93,VALID,0,VALID,97.3891,VALID,0,VALID,18.1083,VALID,95,VALID,0,
2012-08-14, 02:06:04,VALID,916.902,VALID,0,VALID,97.4196,VALID,0,VALID,18.0874,VALID,83,VALID,0,
2012-08-14, 02:07:04,VALID,916.897,VALID,0,VALID,97.4349,VALID,0,VALID,18.0679,VALID,82,VALID,0,
2012-08-14, 02:08:04,VALID,916.861,VALID,0,VALID,97.4501,VALID,0,VALID,18.0679,VALID,82,VALID,0,
2012-08-14, 02:09:04,VALID,916.828,VALID,0,VALID,97.4577,VALID,0,VALID,18.0484,VALID,83,VALID,0,
2012-08-14, 02:10:04,VALID,916.824,VALID,0,VALID,97.4425,VALID,0,VALID,18.0498,VALID,82,VALID,0,
2012-08-14, 02:11:04,VALID,916.792,VALID,0,VALID,97.473,VALID,0,VALID,18.0498,VALID,82,VALID,0,
2012-08-14, 02:12:04,VALID,916.79,VALID,0,VALID,97.4806,VALID,0,VALID,18.0289,VALID,82,VALID,0,
2012-08-14, 02:13:04,VALID,916.786,VALID,0,VALID,97.4882,VALID,0,VALID,18.0289,VALID,83,VALID,0,
2012-08-14, 02:14:04,VALID,916.782,VALID,0,VALID,97.4806,VALID,0,VALID,18.0498,VALID,82,VALID,0,
2012-08-14, 02:15:04,VALID,916.794,VALID,0,VALID,97.4806,VALID,0,VALID,18.0693,VALID,83,VALID,0,
2012-08-14, 02:16:04,VALID,916.788,VALID,0,VALID,97.4882,VALID,0,VALID,18.0484,VALID,83,VALID,0,
2012-08-14, 02:17:04,VALID,916.794,VALID,0,VALID,97.5111,VALID,0,VALID,18.1069,VALID,82,VALID,0,
2012-08-14, 02:18:04,VALID,916.811,VALID,0,VALID,97.4806,VALID,0,VALID,18.0679,VALID,82,VALID,0,
2012-08-14, 02:19:04,VALID,916.783,VALID,0,VALID,97.4806,VALID,0,VALID,18.0484,VALID,156,VALID,0,
2012-08-14, 02:20:04,VALID,916.769,VALID,0,VALID,97.4882,VALID,0,VALID,18.0498,VALID,156,VALID,0,
2012-08-14, 02:21:04,VALID,916.752,VALID,0,VALID,97.4654,VALID,0,VALID,18.0498,VALID,156,VALID,0,
2012-08-14, 02:22:04,VALID,916.737,VALID,0,VALID,97.4806,VALID,0,VALID,18.0094,VALID,179,VALID,0,
2012-08-14, 02:23:04,VALID,916.722,VALID,0,VALID,97.4654,VALID,0,VALID,18.0094,VALID,185,VALID,0,
2012-08-14, 02:24:04,VALID,916.683,VALID,0,VALID,97.4654,VALID,0,VALID,17.9899,VALID,184,VALID,0,
2012-08-14, 02:25:04,VALID,916.677,VALID,0,VALID,97.4882,VALID,0,VALID,17.9913,VALID,184,VALID,0,
2012-08-14, 02:26:04,VALID,916.661,VALID,0,VALID,97.4806,VALID,0,VALID,17.9704,VALID,184,VALID,0,
2012-08-14, 02:27:04,VALID,916.631,VALID,0,VALID,97.4882,VALID,0,VALID,17.9509,VALID,184,VALID,0,
2012-08-14, 02:28:04,VALID,916.621,VALID,0,VALID,97.4882,VALID,0,VALID,17.9704,VALID,184,VALID,0,
2012-08-14, 02:29:04,VALID,916.618,VALID,0,VALID,97.4882,VALID,0,VALID,17.9314,VALID,184,VALID,0,
2012-08-14, 02:30:04,VALID,916.626,VALID,0,VALID,97.4959,VALID,0,VALID,17.9523,VALID,184,VALID,0,
2012-08-14, 02:31:04,VALID,916.628,VALID,0,VALID,97.5035,VALID,0,VALID,17.9328,VALID,184,VALID,0,
2012-08-14, 02:32:04,VALID,916.62,VALID,0,VALID,97.4959,VALID,0,VALID,17.9718,VALID,180,VALID,0,
2012-08-14, 02:33:04,VALID,916.643,VALID,0,VALID,97.5264,VALID,0,VALID,17.9523,VALID,153,VALID,0,
2012-08-14, 02:34:04,VALID,916.614,VALID,0,VALID,97.5264,VALID,0,VALID,17.9119,VALID,153,VALID,0,
2012-08-14, 02:35:04,VALID,916.666,VALID,0,VALID,97.5187,VALID,0,VALID,17.873,VALID,153,VALID,0,
2012-08-14, 02:36:04,VALID,916.673,VALID,0,VALID,97.5416,VALID,0,VALID,17.8925,VALID,153,VALID,0,
2012-08-14, 02:37:04,VALID,916.687,VALID,0,VALID,97.5264,VALID,0,VALID,17.873,VALID,153,VALID,0,
2012-08-14, 02:38:04,VALID,916.677,VALID,0,VALID,97.5416,VALID,0,VALID,17.8925,VALID,153,VALID,0,
2012-08-14, 02:39:04,VALID,916.669,VALID,0,VALID,97.5569,VALID,0,VALID,17.9523,VALID,153,VALID,0,
2012-08-14, 02:40:04,VALID,916.681,VALID,0,VALID,97.5645,VALID,0,VALID,17.9718,VALID,153,VALID,0,
2012-08-14, 02:41:04,VALID,916.655,VALID,0,VALID,97.5797,VALID,0,VALID,17.9704,VALID,153,VALID,0,
2012-08-14, 02:42:04,VALID,916.633,VALID,0,VALID,97.5797,VALID,0,VALID,18.0108,VALID,153,VALID,0,
2012-08-14, 02:43:04,VALID,916.615,VALID,0,VALID,97.5873,VALID,0,VALID,17.9119,VALID,153,VALID,0,
2012-08-14, 02:44:04,VALID,916.557,VALID,0,VALID,97.5645,VALID,0,VALID,17.9119,VALID,153,VALID,0,
2012-08-14, 02:45:04,VALID,916.56,VALID,0,VALID,97.5873,VALID,0,VALID,17.9509,VALID,136,VALID,0,
2012-08-14, 02:46:04,VALID,916.554,VALID,0,VALID,97.5873,VALID,0,VALID,17.9899,VALID,136,VALID,0,
2012-08-14, 02:47:04,VALID,916.551,VALID,0,VALID,97.5797,VALID,0,VALID,17.9913,VALID,135,VALID,0,
2012-08-14, 02:48:04,VALID,916.576,VALID,0,VALID,97.5721,VALID,0,VALID,17.9704,VALID,135,VALID,0,
2012-08-14, 02:49:04,VALID,916.587,VALID,0,VALID,97.5797,VALID,0,VALID,18.0094,VALID,136,VALID,0,
2012-08-14, 02:50:04,VALID,916.571,VALID,0,VALID,97.5721,VALID,0,VALID,18.0094,VALID,123,VALID,0,
2012-08-14, 02:51:04,VALID,916.579,VALID,0,VALID,97.595,VALID,0,VALID,18.0094,VALID,128,VALID,0,
2012-08-14, 02:52:04,VALID,916.561,VALID,0,VALID,97.5797,VALID,0,VALID,18.0484,VALID,119,VALID,0,
2012-08-14, 02:53:04,VALID,916.552,VALID,0,VALID,97.5721,VALID,0,VALID,18.0484,VALID,124,VALID,0,
2012-08-14, 02:54:04,VALID,916.522,VALID,0,VALID,97.5721,VALID,0,VALID,18.0498,VALID,124,VALID,0,
2012-08-14, 02:55:04,VALID,916.477,VALID,0,VALID,97.5797,VALID,0,VALID,18.0289,VALID,126,VALID,0,
2012-08-14, 02:56:04,VALID,916.468,VALID,0,VALID,97.5873,VALID,0,VALID,18.0094,VALID,126,VALID,0,
2012-08-14, 02:57:04,VALID,916.423,VALID,0,VALID,97.5873,VALID,0,VALID,17.9899,VALID,132,VALID,0,
2012-08-14, 02:58:04,VALID,916.45,VALID,0,VALID,97.5645,VALID,0,VALID,17.9704,VALID,141,VALID,0,
2012-08-14, 02:59:04,VALID,916.427,VALID,0,VALID,97.5797,VALID,0,VALID,17.9509,VALID,139,VALID,0,
2012-08-14, 03:00:04,VALID,916.404,VALID,0,VALID,97.5645,VALID,0,VALID,17.9509,VALID,139,VALID,0,
2012-08-14, 03:01:04,VALID,916.383,VALID,0,VALID,97.595,VALID,0,VALID,17.9314,VALID,139,VALID,0,
2012-08-14, 03:02:04,VALID,916.402,VALID,0,VALID,97.5797,VALID,0,VALID,17.9314,VALID,143,VALID,0,
2012-08-14, 03:03:04,VALID,916.371,VALID,0,VALID,97.5797,VALID,0,VALID,17.9314,VALID,145,VALID,0,
2012-08-14, 03:04:04,VALID,916.367,VALID,0,VALID,97.6102,VALID,0,VALID,17.8925,VALID,134,VALID,0,
2012-08-14, 03:05:04,VALID,916.33,VALID,0,VALID,97.6102,VALID,0,VALID,17.8925,VALID,134,VALID,0,
2012-08-14, 03:06:04,VALID,916.324,VALID,0,VALID,97.5873,VALID,0,VALID,17.873,VALID,128,VALID,0,
2012-08-14, 03:07:04,VALID,916.298,VALID,0,VALID,97.6102,VALID,0,VALID,17.873,VALID,133,VALID,0,
2012-08-14, 03:08:04,VALID,916.307,VALID,0,VALID,97.6102,VALID,0,VALID,17.8535,VALID,134,VALID,0,
2012-08-14, 03:09:04,VALID,916.299,VALID,0,VALID,97.595,VALID,0,VALID,17.873,VALID,128,VALID,0,
2012-08-14, 03:10:04,VALID,916.337,VALID,0,VALID,97.6255,VALID,0,VALID,17.8938,VALID,127,VALID,0,
2012-08-14, 03:11:04,VALID,916.313,VALID,0,VALID,97.6407,VALID,0.107441,VALID,17.873,VALID,127,VALID,0,
2012-08-14, 03:12:04,VALID,916.323,VALID,0,VALID,97.6178,VALID,0,VALID,17.8925,VALID,127,VALID,0,
2012-08-14, 03:13:04,VALID,916.304,VALID,0,VALID,97.6331,VALID,0,VALID,17.9314,VALID,145,VALID,0,
2012-08-14, 03:14:04,VALID,916.284,VALID,0,VALID,97.6407,VALID,0,VALID,17.9523,VALID,140,VALID,0,
2012-08-14, 03:15:04,VALID,916.258,VALID,0,VALID,97.6636,VALID,0,VALID,17.9314,VALID,140,VALID,0,
2012-08-14, 03:16:04,VALID,916.291,VALID,0,VALID,97.6407,VALID,0,VALID,17.9523,VALID,140,VALID,0,
2012-08-14, 03:17:04,VALID,916.285,VALID,0,VALID,97.6636,VALID,0,VALID,17.9523,VALID,140,VALID,0,
2012-08-14, 03:18:04,VALID,916.278,VALID,0,VALID,97.6483,VALID,0,VALID,17.9314,VALID,152,VALID,0,
2012-08-14, 03:19:04,VALID,916.288,VALID,0,VALID,97.6712,VALID,0,VALID,17.9509,VALID,132,VALID,0,
2012-08-14, 03:20:04,VALID,916.304,VALID,0,VALID,97.6407,VALID,0,VALID,17.9314,VALID,131,VALID,0,
2012-08-14, 03:21:04,VALID,916.312,VALID,0,VALID,97.6483,VALID,0,VALID,17.9119,VALID,131,VALID,0,
2012-08-14, 03:22:04,VALID,916.309,VALID,0,VALID,97.656,VALID,0,VALID,17.9133,VALID,135,VALID,0,
2012-08-14, 03:23:04,VALID,916.314,VALID,0,VALID,97.6331,VALID,0,VALID,17.9133,VALID,146,VALID,0,
2012-08-14, 03:24:04,VALID,916.336,VALID,0,VALID,97.6331,VALID,0,VALID,17.8925,VALID,146,VALID,0,
2012-08-14, 03:25:04,VALID,916.339,VALID,0,VALID,97.6331,VALID,0,VALID,17.8938,VALID,134,VALID,0,
2012-08-14, 03:26:04,VALID,916.351,VALID,0,VALID,97.6331,VALID,0,VALID,17.8938,VALID,134,VALID,0,
2012-08-14, 03:27:04,VALID,916.331,VALID,0,VALID,97.6483,VALID,0,VALID,17.834,VALID,134,VALID,0,
2012-08-14, 03:28:04,VALID,916.346,VALID,0,VALID,97.6407,VALID,0,VALID,17.873,VALID,134,VALID,0,
2012-08-14, 03:29:04,VALID,916.339,VALID,0,VALID,97.6331,VALID,0,VALID,17.9133,VALID,134,VALID,0,
2012-08-14, 03:30:04,VALID,916.323,VALID,0,VALID,97.6636,VALID,0,VALID,17.9133,VALID,134,VALID,0,
2012-08-14, 03:31:04,VALID,916.341,VALID,0,VALID,97.6483,VALID,0,VALID,17.9119,VALID,134,VALID,0,
2012-08-14, 03:32:04,VALID,916.34,VALID,0,VALID,97.6407,VALID,0,VALID,17.9913,VALID,134,VALID,0,
2012-08-14, 03:33:04,VALID,916.339,VALID,0,VALID,97.6636,VALID,0,VALID,18.0094,VALID,134,VALID,0,
2012-08-14, 03:34:04,VALID,916.341,VALID,0,VALID,97.6331,VALID,0,VALID,18.0289,VALID,140,VALID,0.0730469,
2012-08-14, 03:35:04,VALID,916.315,VALID,0,VALID,97.6255,VALID,0,VALID,18.0484,VALID,131,VALID,0,
2012-08-14, 03:36:04,VALID,916.304,VALID,0,VALID,97.6407,VALID,0,VALID,18.0679,VALID,139,VALID,0,
2012-08-14, 03:37:04,VALID,916.304,VALID,0,VALID,97.595,VALID,0,VALID,18.0693,VALID,140,VALID,0,
2012-08-14, 03:38:04,VALID,916.289,VALID,0,VALID,97.5873,VALID,0,VALID,18.0888,VALID,140,VALID,0,
2012-08-14, 03:39:04,VALID,916.262,VALID,0,VALID,97.5873,VALID,0,VALID,18.0693,VALID,128,VALID,0,
2012-08-14, 03:40:04,VALID,916.276,VALID,0,VALID,97.5721,VALID,0,VALID,18.0484,VALID,134,VALID,0,
2012-08-14, 03:41:04,VALID,916.285,VALID,0,VALID,97.534,VALID,0,VALID,18.0693,VALID,134,VALID,0,
2012-08-14, 03:42:04,VALID,916.291,VALID,0,VALID,97.5416,VALID,0,VALID,18.0498,VALID,134,VALID,0,
2012-08-14, 03:43:04,VALID,916.32,VALID,0,VALID,97.5111,VALID,0,VALID,18.0498,VALID,148,VALID,0,
2012-08-14, 03:44:04,VALID,916.296,VALID,0,VALID,97.4959,VALID,0,VALID,18.0094,VALID,156,VALID,0,
2012-08-14, 03:45:04,VALID,916.326,VALID,0,VALID,97.4882,VALID,0,VALID,17.9899,VALID,154,VALID,0,
2012-08-14, 03:46:04,VALID,916.302,VALID,0,VALID,97.4959,VALID,0,VALID,18.0108,VALID,158,VALID,0,
2012-08-14, 03:47:04,VALID,916.31,VALID,0,VALID,97.4882,VALID,0,VALID,17.9509,VALID,158,VALID,0,
2012-08-14, 03:48:04,VALID,916.274,VALID,0,VALID,97.473,VALID,0.107441,VALID,17.9314,VALID,129,VALID,0,
2012-08-14, 03:49:04,VALID,916.27,VALID,0,VALID,97.4577,VALID,0.107441,VALID,17.8716,VALID,129,VALID,0,
2012-08-14, 03:50:04,VALID,916.281,VALID,0,VALID,97.4425,VALID,0.107441,VALID,17.8145,VALID,129,VALID,0,
2012-08-14, 03:51:04,VALID,916.266,VALID,0,VALID,97.4273,VALID,0.107441,VALID,17.7936,VALID,114,VALID,0,
2012-08-14, 03:52:04,VALID,916.271,VALID,0,VALID,97.4425,VALID,0.107441,VALID,17.834,VALID,114,VALID,0,
2012-08-14, 03:53:04,VALID,916.31,VALID,0,VALID,97.473,VALID,0,VALID,17.834,VALID,114,VALID,0,
2012-08-14, 03:54:04,VALID,916.333,VALID,0,VALID,97.4882,VALID,0,VALID,17.8521,VALID,129,VALID,0,
2012-08-14, 03:55:04,VALID,916.342,VALID,0,VALID,97.4959,VALID,0.107441,VALID,17.9119,VALID,128,VALID,0,
2012-08-14, 03:56:04,VALID,916.386,VALID,0,VALID,97.5111,VALID,0,VALID,17.8716,VALID,128,VALID,0,
2012-08-14, 03:57:04,VALID,916.408,VALID,0,VALID,97.4959,VALID,0,VALID,17.8925,VALID,128,VALID,0,
2012-08-14, 03:58:04,VALID,916.408,VALID,0,VALID,97.4806,VALID,0.107441,VALID,17.8911,VALID,162,VALID,0,
2012-08-14, 03:59:04,VALID,916.435,VALID,0,VALID,97.473,VALID,0.107441,VALID,17.9509,VALID,160,VALID,0,